EZY98AE EGAA-EGKK

Flight info

Callsign EZY98AE
Flight time N/A
Altitude 33000
Route LISBO DCT RINGA DCT BABGU DCT ETIGA DCT INKOB Q39 NOMSU UQ4 WAL L151 DISIT
Aircraft A320/M-SDE3FGHIRWY/LB1

Departure

Time 2026-04-27 19:43
Airport Belfast International Airport (EGAA)

Arrival

Time N/A
Airport London Gatwick Airport (EGKK)
Time Latitude Longitude Altitude Speed Heading
2026-04-27 19:35 54.66034 -6.21614 274 ft 0 kts 245°
2026-04-27 19:37 54.66028 -6.21626 276 ft 7 kts 223°
2026-04-27 19:37 54.65942 -6.21593 272 ft 21 kts 204°
2026-04-27 19:38 54.65847 -6.21902 275 ft 40 kts 245°
2026-04-27 19:38 54.65764 -6.22351 272 ft 16 kts 259°
2026-04-27 19:38 54.65753 -6.22483 272 ft 15 kts 265°
2026-04-27 19:38 54.65740 -6.22711 272 ft 23 kts 265°
2026-04-27 19:39 54.65670 -6.22995 274 ft 30 kts 234°
2026-04-27 19:39 54.65540 -6.23298 272 ft 23 kts 226°
2026-04-27 19:39 54.65422 -6.23398 272 ft 0 kts 196°
2026-04-27 19:41 54.65349 -6.23379 273 ft 25 kts 155°
2026-04-27 19:42 54.65326 -6.23154 272 ft 37 kts 73°
2026-04-27 19:42 54.65544 -6.22355 274 ft 107 kts 66°
2026-04-27 19:42 54.65942 -6.20896 299 ft 157 kts 64°
2026-04-27 19:42 54.66433 -6.19073 751 ft 173 kts 62°
2026-04-27 19:43 54.66925 -6.17236 1569 ft 171 kts 61°
2026-04-27 19:43 54.67375 -6.15232 1996 ft 192 kts 79°
2026-04-27 19:43 54.67013 -6.12868 2316 ft 223 kts 123°
2026-04-27 19:43 54.65659 -6.11250 2680 ft 256 kts 159°
2026-04-27 19:44 54.63863 -6.10593 3440 ft 267 kts 172°
2026-04-27 19:44 54.62000 -6.10329 4383 ft 271 kts 174°
2026-04-27 19:44 54.60107 -6.10153 5354 ft 273 kts 174°
2026-04-27 19:44 54.58199 -6.09947 6243 ft 277 kts 174°
2026-04-27 19:45 54.56256 -6.09672 7078 ft 283 kts 171°
2026-04-27 19:45 54.54344 -6.08842 7831 ft 286 kts 153°
2026-04-27 19:45 54.52669 -6.07001 8589 ft 287 kts 134°
2026-04-27 19:45 54.51407 -6.04347 9339 ft 288 kts 115°
2026-04-27 19:46 54.50592 -6.01196 10119 ft 291 kts 107°